Showing default

FLOCK 4Q 17, 58283

Orbit data source: Space-Track

FLOCK 4Q 17, 58283 is a payload satellite owned by Planet (US) in SSO that was launched on Sat, 11 Nov 2023 UTC via an FALCON 9 launch vehicle from the Air Force Western Test Range (AFWTR). Payloads include a variety of satellites, spacecraft, and rockets equipped with specific instruments for various scientific and technological missions. These include communications satellites like Starlink; space stations such as the ISS; scientific satellites like the Hubble; Earth observation satellites from companies like Planet Labs, Umbra, and HawkEye 360; GPS; miniature CubeSats for education and research; and military/defense satellites.

Loading next visibility...
FLOCK 4Q 17 details
Identifier
58283, 2023-174AD
Orbit
SSO
Last TLE update22 hours ago
Origin
Flag of USPlanet (US)
ManufacturerPlanet
MissionOperational Commercial Imaging
Bus & MotorCUBESAT 3U, Unknown motor
Mass5.7 kg wet, 5.7 kg dry
Launch date (UTC)
2023-11-11 (1 year ago)
Launch vehicle
FALCON 9
Launch site
Air Force Western Test Range (AFWTR)
Object type
Payload
Rocket body
Debris
Shape & HBRBox + 2 Pan, 0.3 m
Radar Cross Section0.035 m², Medium (>0.1 m² and < 1m²)

Expand to show TLE details & history

TLE from 22 hours ago
0 FLOCK 4Q 17
1 58283U 23174AD  24355.75350456  .00022780  00000-0  80330-3 0  9993
2 58283  97.4335  69.0873 0007547 297.7038  62.3436 15.29245407 62136
Epoch: 2024-12-20T18:05Z
Definitive object data (Epoch: 2024-12-20T18:05:02.793Z)
Latitude-0.00005°
Longitude68.01118°
Altitude478.77 km
Speed7.628 km/s
True Right ascension04h 36m 20s
True Declination0° 00' 00"
Sunlit
Object was in full shadow at TLE epoch
Visualization TLE readout
Latitude-75.15093°
Longitude-140.39317°
Altitude501.146 km
Speed7.615 km/s
Apparent Right ascension02h 37m 43s
Apparent Declination-73° 41' 17"
Sunlit
Object is in daylight
Visualization observer readout
Local Sidereal Time14:39:32
Azimuth179.772° S
Elevation-56.227°
Doppler factor1
Orbital elements
Apogee altitude480.194 km
Perigee altitude469.849 km
Semi-major axis6,853.158 km
Eccentricity0.0007547
Inclination97.4335°
RAAN69.0873°
Arg. of periapsis297.7038°
True anomaly62.42023°
Mean anomaly62.3436°
Eccentric anomaly62.38191°
Mean motion3.82567 °/min
BSTAR0.0008033
Orbital period94.1 mins
Loading maneuver chart data...
Loading historical data...
Loading historical data...
Loading historical data...
Loading historical data...
Loading historical data...
Loading historical data...
Loading historical data...

FLOCK 4Q 17 Visibility forecast

Observer location: undefined°, undefined

Span
Click to sort rows by Start time (UTC) header in descending order
Start Az.
Max El. time (UTC)
Max El. Az.
Max El.
End time (UTC)
End Az.
6 mins2024-12-21 18:12:12.760Z1.221° NNE2024-12-21 18:15:12.760Z250.367° W39.338°2024-12-21 18:18:12.760Z204.711° SW
4 mins2024-12-22 04:47:12.760Z126.765° SE2024-12-22 04:49:12.760Z52.576° ENE31.872°2024-12-22 04:51:12.760Z9.211° NNE
|